GW4111 Weather Reports


time (UTC)temp
F
wind
direction
speed
knots
gust
knots
rain 1hr
in
rain 24hr
in
rain mn
in
humidity
%
barometer
mb
20260509200043 65 237 3.5 12.2 0.00 0.00 0.00 62 1003.3
20260509194538 65 181 3.5 10.4 0.00 0.00 0.00 62 1003.2
20260509193037 66 197 4.3 9.6 0.00 0.00 0.00 60 1003.7
20260509191541 64 281 5.2 9.6 0.00 0.00 0.00 61 1004.0
20260509190042 64 214 3.5 13.9 0.00 0.00 0.00 63 1004.3
20260509184554 63 226 7.0 13.0 0.00 0.00 0.00 64 1004.5
20260509183039 63 214 6.1 13.0 0.00 0.00 0.00 63 1004.4
20260509181545 64 249 3.5 11.3 0.00 0.00 0.00 63 1004.5
20260509180038 64 191 3.5 10.4 0.00 0.00 0.00 63 1004.7
20260509174540 64 229 3.5 10.4 0.00 0.00 0.00 62 1004.9
20260509173038 64 193 3.5 9.6 0.00 0.00 0.00 61 1005.2
20260509171539 62 259 6.1 12.2 0.00 0.00 0.00 63 1005.3
20260509170038 62 283 4.3 13.0 0.00 0.00 0.00 64 1005.3
20260509164537 62 280 5.2 10.4 0.00 0.00 0.00 63 1005.4
20260509163044 63 235 4.3 11.3 0.00 0.00 0.00 61 1005.6
20260509161539 61 208 3.5 9.6 0.00 0.00 0.00 63 1005.8
20260509160039 61 201 1.7 7.0 0.00 0.00 0.00 63 1005.8
20260509154544 60 242 2.6 7.8 0.00 0.00 0.00 63 1006.0
20260509153040 60 114 2.6 9.6 0.00 0.00 0.00 63 1006.0
20260509151538 58 242 1.7 7.0 0.00 0.00 0.00 60 1006.2
20260509150037 58 214 1.7 7.0 0.00 0.00 0.00 60 1006.2
20260509144542 57 259 3.5 8.7 0.00 0.00 0.00 60 1006.2
20260509143047 57 193 0.9 8.7 0.00 0.00 0.00 58 1006.3
20260509141543 56 0 4.3 7.8 0.00 0.00 0.00 50 1006.4
20260509140048 56 276 2.6 8.7 0.00 0.00 0.00 50 1006.5
20260509134538 56 0 0.9 7.0 0.00 0.00 0.00 46 1006.6
20260509133038 57 0 3.5 9.6 0.00 0.00 0.00 47 1006.6
20260509131540 56 197 2.6 7.8 0.00 0.00 0.00 45 1006.6
20260509130042 55 113 0.0 4.3 0.00 0.00 0.00 37 1006.6
20260509124539 53 208 0.9 7.0 0.00 0.01 0.00 28 1006.9
20260509123048 53 203 0.0 3.5 0.00 0.01 0.00 23 1007.0
20260509121538 52 162 0.0 3.5 0.00 0.01 0.00 14 1007.1
20260509120037 50 0 0.0 3.5 0.00 0.01 0.00 1 1007.0
20260509114541 49 194 0.0 4.3 0.00 0.08 0.00 100 1007.0
20260509113045 48 0 0.0 1.7 0.00 0.08 0.00 100 1007.0
20260509111546 46 0 0.0 0.9 0.00 0.08 0.00 100 1007.0
20260509110038 45 0 0.0 0.9 0.00 0.08 0.00 100 1007.2
20260509104536 44 134 0.0 0.9 0.00 0.09 0.00 100 1007.2
20260509103049 42 0 0.0 0.9 0.00 0.09 0.00 100 1007.1
20260509101539 41 0 0.0 0.0 0.00 0.09 0.00 100 1007.0
20260509100053 41 0 0.0 0.0 0.00 0.09 0.00 100 1007.0
20260509094544 41 0 0.0 0.0 0.00 0.10 0.00 100 1007.1
20260509093039 41 0 0.0 0.0 0.00 0.10 0.00 14 1007.0
20260509091538 42 0 0.0 0.0 0.00 0.10 0.00 21 1007.0
20260509090036 42 0 0.0 0.0 0.00 0.10 0.00 29 1007.1
20260509084538 42 0 0.0 0.0 0.00 0.10 0.00 39 1007.2
20260509083043 43 0 0.0 0.0 0.00 0.10 0.00 45 1007.2
20260509081539 43 0 0.0 0.0 0.00 0.10 0.00 47 1007.2
20260509080045 42 0 0.0 0.9 0.00 0.10 0.00 52 1007.4
20260509074543 42 0 0.0 0.0 0.00 0.10 0.00 54 1007.4
20260509073046 41 0 0.0 0.0 0.00 0.10 0.00 52 1007.5
20260509071538 40 0 0.0 0.0 0.00 0.10 0.00 39 1007.8
20260509070040 39 0 0.0 0.9 0.00 0.10 0.00 35 1007.7
20260509064538 39 0 0.0 0.0 0.00 0.10 0.00 35 1007.9
20260509063040 38 0 0.0 0.0 0.00 0.10 0.00 47 1008.2
20260509061550 38 0 0.0 0.0 0.00 0.10 0.00 58 1008.3
20260509060042 39 0 0.0 0.0 0.00 0.10 0.00 60 1008.6
20260509054550 39 0 0.0 0.0 0.00 0.10 0.00 63 1008.8
20260509053053 40 0 0.0 0.0 0.00 0.10 0.00 64 1009.0
20260509051537 40 0 0.0 0.0 0.00 0.10 0.00 64 1009.0
20260509050038 40 0 0.0 0.0 0.00 0.10 0.00 64 1009.1
20260509044544 40 0 0.0 0.0 0.00 0.10 0.00 65 1009.2
20260509043034 40 0 0.0 0.0 0.00 0.10 0.00 66 1009.4
20260509041538 42 0 0.0 0.0 0.00 0.10 0.00 66 1009.5
20260509040039 42 0 0.0 0.0 0.00 0.10 0.00 66 1009.5
20260509034538 41 0 0.0 0.0 0.00 0.10 0.10 66 1009.8
20260509033038 41 0 0.0 0.0 0.00 0.10 0.10 66 1009.8
20260509031544 40 0 0.0 0.0 0.00 0.10 0.10 66 1010.0
20260509030040 41 0 0.0 0.0 0.00 0.10 0.10 66 1010.0
20260509024538 41 0 0.0 0.0 0.00 0.11 0.10 67 1010.1
20260509023039 42 0 0.0 0.0 0.00 0.11 0.10 66 1010.1
20260509021538 42 0 0.0 0.0 0.00 0.11 0.10 66 1010.0
20260509020039 43 0 0.0 0.0 0.00 0.11 0.10 63 1009.9
20260509014535 44 0 0.0 0.0 0.00 0.20 0.10 57 1009.9
20260509013039 45 0 0.0 0.0 0.00 0.20 0.10 50 1009.8
20260509011538 46 0 0.0 0.0 0.00 0.20 0.10 46 1009.7
20260509010038 48 0 0.0 0.0 0.00 0.20 0.10 42 1009.8
20260509004540 50 0 0.0 2.6 0.00 0.20 0.10 38 1009.7
20260509003042 51 0 0.0 4.3 0.00 0.20 0.10 37 1009.6
20260509001538 52 0 0.0 0.9 0.00 0.20 0.10 36 1009.5
20260509000038 53 208 0.0 2.6 0.00 0.20 0.10 34 1009.4
20260508234539 54 277 0.0 3.5 0.00 0.20 0.10 32 1009.4
20260508233037 55 0 0.0 5.2 0.00 0.20 0.10 32 1009.3
20260508231552 56 250 0.0 4.3 0.00 0.20 0.10 35 1009.4
20260508230051 56 245 0.9 7.0 0.00 0.20 0.10 35 1009.3
20260508224538 56 0 2.6 7.8 0.00 0.20 0.10 35 1009.4
20260508223043 56 0 0.0 5.2 0.00 0.20 0.10 36 1009.5
20260508221538 56 231 1.7 7.0 0.00 0.20 0.10 36 1009.4
20260508220043 56 0 0.0 7.8 0.00 0.20 0.10 36 1009.5
20260508214554 56 250 1.7 7.8 0.00 0.20 0.10 36 1009.4
20260508213047 58 270 0.0 4.3 0.00 0.20 0.10 35 1009.5
20260508211541 57 241 2.6 7.8 0.00 0.20 0.10 36 1009.5
20260508210041 57 282 3.5 11.3 0.00 0.20 0.10 36 1009.4
20260508204538 57 0 3.5 10.4 0.00 0.20 0.10 37 1009.5
20260508203037 58 264 1.7 7.0 0.00 0.20 0.10 38 1009.5
20260508201536 57 167 0.9 4.3 0.00 0.20 0.10 43 1009.7